Погода в Павловске

Россия / Алтайский край     53°19′42″N   82°58′15″E
темп.,
°C
ветер,
м/с
пор.,
м/с
влажн.,
%
обл.,
%
осадки,
мм/ч
давл.,
гПа
погр.,
м
5 декабря, вс
вс501:00−9юз379766 0.0 1033107
04:00−12ююз3399100 0.0 103336
07:00−10ю2399100 0.0 103241
10:00−9ю369776 0.0 103084
13:00−4ююз4795100 0.1 1028215
16:00−2ююз3794100 0.0 1026266
19:00−3ююз4793100 0.0 1026188
22:00−3ююз4792100 0.0 1026165
6 декабря, пн
пн601:00−7ююз3692100 0.0 102585
04:00−7ююз3792100 0.0 102499
07:00−7ю3691100 0.0 102382
10:00−6ю3689100 0.0 1023105
13:00−3ююз4887100 0.0 1022192
16:00−2ю51481100 0.0 1020426
19:00−3ююз51286100 0.0 1020292
22:00−3юз51488100 0.0 1019378
7 декабря, вт
вт701:00−1ююз61697100 1.4 1017609
04:000юз81697100 1.9 1016739
07:000юз81598100 2.6 1016893
10:000зюз81396100 0.9 1018973
13:00−2з81294100 1.6 1021839
16:00−5з71188100 0.2 1025848
19:00−10зсз5109396 0.2 1030342
22:00−17з379856 0.0 103488
8 декабря, ср
ср801:00−22з2210040 0.0 103625
04:00−24зюз1110035 0.0 10389
07:00−24зюз1110038 0.0 10389
10:00−25сз1110057 0.0 10389
13:00−18ссз1193100 0.0 103785
16:00−17сз1195100 0.0 103716
19:00−21сз2299100 0.0 103816
22:00−22зсз2299100 0.0 103926
9 декабря, чт
чт901:00−26зсз221005 0.0 10419
04:00−27з2210039 0.0 104311
07:00−27зюз2210033 0.0 104421
10:00−25зюз2310059 0.0 104642
13:00−19зюз349553 0.0 1046157
16:00−18юз249689 0.0 104663
19:00−21юз36996 0.0 104768
22:00−21юз379955 0.0 1047100